Total_Precipitation_Accumulation
1.13 1.00 0.94 1.11 1.10 1.14 1.18 1.20 1.20 1.06 0.94 0.83 0.77 0.70 0.75 0.74 0.71 0.68 0.86 0.93 1.18 1.54 1.72 1.70 1.66 1.48 1.42 1.35 1.40 1.48 1.53 1.50 1.73 2.07 2.30 2.37 2.15 1.73 1.37 1.20 1.22 1.13 1.18
1.02 1.02 0.89 0.96 1.05 1.19 1.38 1.42 1.26 1.15 1.07 0.99 0.97 0.91 0.90 0.85 0.81 0.69 0.80 0.87 0.83 0.98 1.30 1.69 1.87 1.72 1.60 1.50 1.48 1.53 1.54 1.50 1.61 1.86 1.97 2.08 2.10 1.80 1.36 1.18 1.15 1.07 1.20
0.86 0.98 0.97 0.95 0.99 1.21 1.44 1.56 1.45 1.32 1.15 1.09 1.07 1.04 0.95 0.97 0.95 0.86 0.86 0.95 0.81 0.77 1.00 1.44 1.82 1.92 1.83 1.78 1.67 1.63 1.54 1.47 1.50 1.62 1.76 1.76 1.83 1.73 1.41 1.23 1.15 1.13 1.16
0.92 1.04 1.09 1.02 1.04 1.23 1.43 1.62 1.66 1.60 1.46 1.36 1.29 1.19 1.14 1.22 1.11 1.00 0.96 1.01 1.10 0.96 0.93 1.12 1.41 1.70 1.93 1.98 1.78 1.60 1.47 1.38 1.37 1.39 1.52 1.42 1.47 1.50 1.31 1.19 1.20 1.24 1.25
0.93 1.08 1.24 1.25 1.26 1.36 1.43 1.46 1.54 1.52 1.53 1.52 1.37 1.35 1.28 1.36 1.35 1.18 1.19 1.23 1.27 1.21 1.08 0.95 1.04 1.10 1.46 1.84 1.86 1.69 1.56 1.43 1.34 1.28 1.40 1.27 1.22 1.30 1.18 1.16 1.22 1.26 1.23
1.16 1.13 1.25 1.27 1.33 1.48 1.51 1.63 1.79 1.67 1.56 1.66 1.54 1.45 1.41 1.38 1.36 1.37 1.41 1.43 1.43 1.29 1.25 1.08 1.07 0.89 0.98 1.29 1.50 1.63 1.59 1.59 1.56 1.45 1.46 1.31 1.16 1.17 1.17 1.09 1.08 1.13 1.16
1.29 1.31 1.32 1.31 1.34 1.41 1.47 1.64 1.97 1.93 1.73 1.65 1.83 1.81 1.72 1.53 1.44 1.45 1.46 1.57 1.58 1.40 1.39 1.43 1.30 1.07 0.87 0.87 0.98 1.30 1.46 1.66 1.78 1.69 1.64 1.47 1.20 1.18 1.22 1.04 1.06 1.12 1.09
1.27 1.21 1.36 1.45 1.40 1.51 1.59 1.74 1.99 2.14 1.92 1.75 2.06 2.47 2.25 2.00 1.66 1.47 1.46 1.39 1.49 1.50 1.43 1.32 1.25 1.17 1.02 0.98 0.75 0.88 1.15 1.54 1.88 1.81 1.68 1.55 1.32 1.21 1.21 1.07 1.05 1.11 1.13
1.53 1.46 1.53 1.66 1.57 1.59 1.65 1.70 1.77 2.16 2.27 2.07 2.04 2.54 2.40 2.25 2.17 1.70 1.37 1.24 1.44 1.55 1.55 1.43 1.32 1.34 1.27 1.17 0.96 0.71 0.81 1.14 1.65 1.79 1.71 1.64 1.49 1.33 1.20 1.13 1.11 1.12 1.24
1.74 1.63 1.63 1.67 1.67 1.72 1.67 1.56 1.70 2.07 2.46 2.47 2.29 2.10 1.97 1.96 2.14 2.04 1.51 1.25 1.33 1.46 1.63 1.53 1.46 1.45 1.41 1.38 1.28 0.94 0.71 0.80 1.30 1.85 1.99 1.91 1.73 1.51 1.41 1.34 1.26 1.26 1.27
1.75 1.61 1.54 1.59 1.65 1.74 1.74 1.78 1.93 2.20 2.44 2.62 2.55 2.31 2.07 1.88 1.58 1.76 1.75 1.54 1.33 1.28 1.35 1.45 1.54 1.51 1.44 1.38 1.42 1.21 0.83 0.68 0.91 1.50 2.00 2.10 1.93 1.74 1.67 1.62 1.58 1.61 1.54
1.57 1.53 1.51 1.48 1.45 1.52 1.63 1.79 2.01 2.14 2.32 2.53 2.53 2.26 2.09 1.97 1.82 1.72 1.58 1.64 1.62 1.36 1.23 1.22 1.32 1.43 1.43 1.40 1.24 1.28 1.06 0.80 0.74 0.91 1.27 1.68 1.80 1.81 1.80 1.78 1.73 1.72 1.78
1.35 1.37 1.39 1.35 1.26 1.24 1.36 1.54 1.76 1.82 1.94 2.14 2.21 2.10 1.99 1.83 1.80 1.86 1.83 1.74 1.60 1.35 1.23 1.07 1.14 1.26 1.25 1.31 1.35 1.36 1.13 0.97 0.78 0.73 0.79 0.96 1.25 1.57 1.80 1.95 1.99 1.96 1.93
1.17 1.11 1.15 1.16 1.14 1.14 1.16 1.25 1.38 1.46 1.56 1.74 1.82 1.86 1.75 1.72 1.75 1.74 1.77 1.90 1.77 1.53 1.23 0.93 0.95 1.08 1.05 1.10 1.29 1.32 0.98 0.91 0.81 0.74 0.71 0.70 0.76 0.96 1.30 1.53 1.75 1.96 2.01
0.94 0.91 0.98 1.06 1.14 1.07 1.02 1.08 1.17 1.22 1.34 1.49 1.63 1.77 1.72 1.68 1.68 1.73 1.79 1.83 1.84 1.71 1.44 1.04 0.89 0.85 0.90 0.97 1.21 1.10 0.96 0.92 0.82 0.77 0.69 0.61 0.56 0.57 0.70 0.89 1.11 1.31 1.43
0.87 0.87 0.89 0.90 0.93 0.92 0.95 1.04 1.14 1.23 1.26 1.33 1.42 1.57 1.69 1.73 1.75 1.75 1.80 1.80 1.76 1.72 1.61 1.22 0.96 0.81 0.89 0.86 1.02 0.87 0.97 1.13 0.90 0.75 0.67 0.61 0.57 0.55 0.54 0.60 0.65 0.70 0.72
0.67 0.69 0.67 0.71 0.83 0.84 0.83 0.93 1.00 1.03 1.15 1.24 1.25 1.28 1.46 1.59 1.70 1.75 1.76 1.75 1.79 1.73 1.59 1.38 1.09 0.91 0.98 0.97 0.98 0.86 0.91 0.96 0.87 0.81 0.72 0.62 0.56 0.56 0.52 0.52 0.52 0.48 0.49
0.45 0.51 0.55 0.54 0.72 0.89 0.91 0.94 0.95 0.93 1.01 1.07 1.12 1.20 1.28 1.31 1.40 1.54 1.65 1.64 1.71 1.75 1.68 1.57 1.30 1.07 1.04 1.05 1.13 1.15 1.10 1.05 1.01 1.07 1.02 0.84 0.69 0.63 0.57 0.51 0.48 0.44 0.41
0.35 0.39 0.52 0.51 0.56 0.73 0.84 0.85 0.83 0.85 0.89 0.95 0.98 1.03 1.07 1.15 1.25 1.29 1.38 1.47 1.55 1.59 1.66 1.60 1.50 1.37 1.22 1.14 1.14 1.11 1.20 1.35 1.30 1.28 1.32 1.13 0.91 0.77 0.69 0.62 0.56 0.50 0.46
0.37 0.35 0.36 0.38 0.44 0.54 0.67 0.69 0.68 0.71 0.74 0.77 0.87 0.94 0.98 1.03 1.11 1.19 1.21 1.33 1.45 1.54 1.55 1.52 1.47 1.41 1.35 1.31 1.27 1.22 1.28 1.41 1.49 1.40 1.38 1.29 1.20 1.08 0.93 0.80 0.69 0.62 0.58
0.22 0.24 0.22 0.23 0.28 0.37 0.43 0.44 0.51 0.59 0.66 0.70 0.80 0.82 0.86 0.82 0.86 0.93 0.93 1.10 1.26 1.43 1.49 1.53 1.45 1.35 1.29 1.29 1.28 1.29 1.34 1.50 1.55 1.58 1.58 1.45 1.32 1.16 1.02 0.92 0.79 0.72 0.69
0.10 0.15 0.15 0.18 0.22 0.25 0.31 0.30 0.35 0.48 0.58 0.63 0.70 0.74 0.80 0.82 0.78 0.74 0.74 0.81 0.94 1.06 1.24 1.36 1.40 1.33 1.25 1.23 1.32 1.43 1.45 1.52 1.62 1.56 1.47 1.54 1.47 1.35 1.17 0.98 0.96 0.92 0.82
0.07 0.09 0.09 0.15 0.19 0.17 0.19 0.18 0.29 0.49 0.54 0.55 0.54 0.67 0.78 0.84 0.87 0.89 0.77 0.76 0.77 0.82 0.91 1.08 1.22 1.22 1.21 1.22 1.29 1.38 1.45 1.49 1.41 1.46 1.42 1.49 1.47 1.35 1.20 1.13 1.16 1.03 0.93
0.04 0.08 0.09 0.16 0.15 0.10 0.12 0.15 0.22 0.39 0.47 0.45 0.47 0.58 0.73 0.84 0.87 0.89 0.84 0.90 0.88 0.79 0.76 0.84 1.02 1.10 1.10 1.23 1.36 1.46 1.58 1.57 1.52 1.50 1.42 1.43 1.38 1.25 1.15 1.14 1.21 1.08 0.97
0.04 0.07 0.11 0.12 0.09 0.06 0.08 0.12 0.20 0.38 0.46 0.47 0.44 0.52 0.67 0.76 0.86 0.87 0.84 0.95 0.95 0.78 0.71 0.81 0.85 0.92 1.00 1.13 1.31 1.45 1.54 1.55 1.53 1.51 1.36 1.23 1.18 1.23 1.23 1.16 1.13 1.12 1.00
0.06 0.07 0.09 0.10 0.08 0.08 0.07 0.08 0.15 0.26 0.36 0.44 0.44 0.49 0.69 0.75 0.77 0.74 0.76 0.96 1.06 0.93 0.70 0.68 0.75 0.88 0.96 1.09 1.32 1.46 1.68 1.68 1.49 1.45 1.35 1.21 1.20 1.28 1.40 1.31 1.13 1.03 0.96